This is the latest recevied weather packets stored in our database for station/object IZ1UQG-1. If no packets are shown the sender has not sent any weather packets the latest 10 day(s).
| Time | Temp. | Humidity | Pressure | Rain* | Wind** | Luminosity | Snow |
|---|---|---|---|---|---|---|---|
| 1778017435 | 13.89° C | 79% | 1012.5 hPa | 241.81 mm | - | - | - |
| 1778017134 | 13.89° C | 79% | 1012.6 hPa | 240.79 mm | - | - | - |
| 1778016834 | 13.89° C | 79% | 1012.6 hPa | 24.13 mm | - | - | - |
| 1778016534 | 13.89° C | 79% | 1012.6 hPa | 20.83 mm | - | - | - |
| 1778016235 | 13.89° C | 79% | 1012.7 hPa | 13.72 mm | - | - | - |
| 1778015934 | 13.89° C | 79% | 1012.9 hPa | 15.24 mm | - | - | - |
| 1778015635 | 13.89° C | 79% | 1012.9 hPa | 38.61 mm | - | - | - |
| 1778015335 | 13.89° C | 79% | 1012.9 hPa | 45.72 mm | - | - | - |
| 1778015035 | 13.89° C | 79% | 1012.8 hPa | 20.83 mm | - | - | - |
| 1778014734 | 13.89° C | 79% | 1012.8 hPa | 6.35 mm | - | - | - |
| 1778014435 | 13.89° C | 79% | 1012.9 hPa | 34.8 mm | - | - | - |
| 1778014135 | 13.89° C | 79% | 1012.9 hPa | 46.23 mm | - | - | - |
| 1778013835 | 13.89° C | 79% | 1012.9 hPa | 40.64 mm | - | - | - |
| 1778013535 | 13.89° C | 79% | 1012.9 hPa | 23.62 mm | - | - | - |
| 1778013235 | 13.89° C | 79% | 1012.9 hPa | 44.7 mm | - | - | - |
| 1778012935 | 13.89° C | 79% | 1013 hPa | 64.52 mm | - | - | - |
| 1778012634 | 13.89° C | 78% | 1013.2 hPa | 71.63 mm | - | - | - |
| 1778012334 | 13.89° C | 78% | 1013 hPa | 67.06 mm | - | - | - |
| 1778012035 | 13.89° C | 78% | 1013 hPa | 108.46 mm | - | - | - |
| 1778011735 | 13.89° C | 78% | 1012.9 hPa | 98.04 mm | - | - | - |
| 1778011435 | 14.44° C | 78% | 1012.9 hPa | 108.97 mm | - | - | - |
| 1778011135 | 14.44° C | 78% | 1012.9 hPa | 76.45 mm | - | - | - |
| 1778010835 | 14.44° C | 78% | 1012.9 hPa | 117.35 mm | - | - | - |
| 1778010535 | 14.44° C | 78% | 1012.8 hPa | 120.4 mm | - | - | - |
| 1778010235 | 14.44° C | 78% | 1012.8 hPa | 147.83 mm | - | - | - |
* Rain latest hour (hover to see other rain measurements)
** Current wind speed in m/s (hover to see current wind gust speed)